Prestwick, United Kingdom

11:28 AM BST on June 23, 2017 (GMT +0100)
Prestwick

Weather History for EGPK - October, 2013

Change the Weather History Date:

Tuesday, October 29, 2013

  Actual Average Record
Temperature  
Mean Temperature 46 °F -  
Max Temperature 51 °F 48 °F 60 °F (2005)
Min Temperature 41 °F 38 °F 30 °F (1997)
Degree Days  
Heating Degree Days 19    
Moisture  
Dew Point 42 °F    
Average Humidity 79    
Maximum Humidity 87    
Minimum Humidity 71    
Precipitation  
Precipitation 0.00 in - - ()
Sea Level Pressure  
Sea Level Pressure 29.70 in    
Wind  
Wind Speed 11 mph ()    
Max Wind Speed 22 mph    
Max Gust Speed 22 mph    
Visibility 6.2 miles    
Events Rain    
Averages and records for this station are not official NWS values.
T = Trace of Precipitation, MM = Missing Value Source: Averaged Metar Reports

Daily Weather History Graph

Daily Weather History Graph

Search for Another Location

Airport or City:

Trip Planner

Search our weather history database for the weather conditions in past years. The results will help you decide how hot, cold, wet, or windy it might be!

Date:

Astronomy

Oct. 29, 2013 Rise Set
Actual Time 7:17 AM GMT 4:45 PM GMT
Civil Twilight 6:38 AM GMT 5:24 PM GMT
Nautical Twilight 5:55 AM GMT 6:07 PM GMT
Astronomical Twilight 5:13 AM GMT 6:49 PM GMT
Moon 1:01 AM GMT (10/29) 2:38 PM GMT (10/29)
Length of Visible Light 10h 45m
Length of Day
9h 28m
Waning Crescent, 27% of the Moon is Illuminated
Oct 29
Waning Crescent
Nov 3
New
Nov 10
First Quarter
Nov 17
Full
Nov 25
Last Quarter

Hourly Weather History & Observations

Time (GMT) Temp. Windchill Dew Point Humidity Pressure Visibility Wind Dir Wind Speed Gust Speed Precip Events Conditions
12:50 AM 48.2 °F - 42.8 °F 82% 29.42 in 6.2 mi WNW 12.7 mph - N/A   Partly Cloudy
1:50 AM 50.0 °F - 41.0 °F 71% 29.44 in 6.2 mi WNW 17.3 mph - N/A   Scattered Clouds
2:50 AM 46.4 °F 38.5 °F 41.0 °F 81% 29.47 in 6.2 mi WNW 21.9 mph - N/A Rain Light Rain
3:50 AM 46.4 °F 41.1 °F 41.0 °F 81% 29.50 in 6.2 mi WNW 11.5 mph - N/A   Scattered Clouds
4:50 AM 46.4 °F 42.4 °F 41.0 °F 81% 29.50 in 6.2 mi WNW 8.1 mph - N/A Rain Light Rain
5:50 AM 41.0 °F 36.4 °F 37.4 °F 87% 29.53 in 6.2 mi West 6.9 mph - N/A Rain Light Rain
6:20 AM 44.6 °F 39.2 °F 39.2 °F 81% 29.53 in 6.2 mi West 10.4 mph 21.9 mph N/A   Scattered Clouds
6:50 AM 44.6 °F 39.2 °F 39.2 °F 81% 29.56 in 6.2 mi West 10.4 mph - N/A   Scattered Clouds
7:20 AM 46.4 °F 40.7 °F 39.2 °F 76% 29.56 in 6.2 mi West 12.7 mph - N/A   Scattered Clouds
7:50 AM 46.4 °F 41.1 °F 41.0 °F 81% 29.59 in 6.2 mi West 11.5 mph - N/A   Scattered Clouds
8:20 AM 46.4 °F 41.1 °F 41.0 °F 81% 29.59 in 6.2 mi West 11.5 mph - N/A   Scattered Clouds
8:50 AM 48.2 °F - 41.0 °F 76% 29.62 in 6.2 mi West 12.7 mph - N/A   Scattered Clouds
9:20 AM 50.0 °F - 41.0 °F 71% 29.62 in 6.2 mi WSW 11.5 mph - N/A Rain Light Rain
9:50 AM 46.4 °F 45.2 °F 42.8 °F 87% 29.65 in 6.2 mi NNW 3.5 mph - N/A   Mostly Cloudy
10:20 AM 48.2 °F - 42.8 °F 82% 29.65 in 6.2 mi West 5.8 mph - N/A   Scattered Clouds
10:50 AM 48.2 °F - 42.8 °F 82% 29.65 in 6.2 mi West 11.5 mph - N/A   Mostly Cloudy
11:20 AM 48.2 °F - 42.8 °F 82% 29.68 in 6.2 mi West 12.7 mph - N/A   Mostly Cloudy
11:50 AM 48.2 °F - 42.8 °F 82% 29.68 in 6.2 mi WNW 11.5 mph - N/A Rain Light Rain Showers
12:20 PM 50.0 °F - 44.6 °F 82% 29.68 in 6.2 mi West 11.5 mph - N/A   Scattered Clouds
12:50 PM 50.0 °F - 44.6 °F 82% 29.71 in 6.2 mi West 11.5 mph - N/A   Scattered Clouds
1:20 PM 51.8 °F - 42.8 °F 71% 29.71 in 6.2 mi West 13.8 mph - N/A   Scattered Clouds
1:50 PM 50.0 °F - 44.6 °F 82% 29.71 in 6.2 mi West 13.8 mph - N/A   Partly Cloudy
2:20 PM 50.0 °F - 41.0 °F 71% 29.71 in 6.2 mi West 13.8 mph - N/A   Partly Cloudy
2:50 PM 51.8 °F - 42.8 °F 71% 29.74 in 6.2 mi West 17.3 mph - N/A   Partly Cloudy
3:20 PM 50.0 °F - 41.0 °F 71% 29.74 in 6.2 mi NW 15.0 mph - N/A Rain Light Rain Showers
3:50 PM 48.2 °F - 41.0 °F 76% 29.74 in 6.2 mi West 11.5 mph - N/A   Scattered Clouds
4:20 PM 48.2 °F - 42.8 °F 82% 29.77 in 6.2 mi WNW 10.4 mph - N/A   Scattered Clouds
4:50 PM 48.2 °F - 42.8 °F 82% 29.77 in 6.2 mi West 10.4 mph - N/A   Partly Cloudy
5:20 PM 48.2 °F - 42.8 °F 82% 29.77 in 6.2 mi West 9.2 mph - N/A   Scattered Clouds
5:50 PM 46.4 °F 42.9 °F 42.8 °F 87% 29.80 in 6.2 mi West 6.9 mph - N/A Rain Light Rain Showers
6:20 PM 48.2 °F - 41.0 °F 76% 29.80 in 6.2 mi WNW 15.0 mph - N/A   Scattered Clouds
6:50 PM 48.2 °F - 41.0 °F 76% 29.83 in 6.2 mi West 12.7 mph - N/A   Scattered Clouds
7:20 PM 46.4 °F 41.5 °F 41.0 °F 81% 29.83 in 6.2 mi West 10.4 mph - N/A   Scattered Clouds
7:50 PM 46.4 °F 41.5 °F 41.0 °F 81% 29.83 in 6.2 mi West 10.4 mph - N/A   Partly Cloudy
8:20 PM 48.2 °F - 42.8 °F 82% 29.86 in 6.2 mi West 15.0 mph - N/A   Partly Cloudy
8:50 PM 48.2 °F - 41.0 °F 76% 29.86 in 6.2 mi West 11.5 mph - N/A   Partly Cloudy
9:20 PM 48.2 °F - 41.0 °F 76% 29.86 in 6.2 mi West 11.5 mph - N/A   Partly Cloudy
9:50 PM 48.2 °F - 41.0 °F 76% 29.86 in 6.2 mi West 11.5 mph - N/A   Partly Cloudy
10:20 PM 46.4 °F 42.4 °F 41.0 °F 81% 29.89 in 6.2 mi West 8.1 mph - N/A Rain Light Rain
10:50 PM 46.4 °F 42.4 °F 41.0 °F 81% 29.89 in 6.2 mi WSW 8.1 mph - N/A   Partly Cloudy
11:20 PM 46.4 °F 42.9 °F 41.0 °F 81% 29.89 in 6.2 mi WSW 6.9 mph - N/A   Partly Cloudy
11:50 PM 48.2 °F - 41.0 °F 76% 29.89 in 6.2 mi WSW 5.8 mph - N/A   Partly Cloudy